Location: Bemmer
(51.5498°N, 5.6249°E)
Time: 12:52:28
(UTC+00:00)

ARGOS - Pass Details

Date: 03 March 2021
Orbit: 819 x 835 km, 98.4° (Epoch: 10 April)

Event Time Altitude Azimuth Distance (km) Brightness Sun altitude
Rises 17:50:38 0° 147° (SSE) 3,372 6.0 -5.3°
Reaches altitude 10° 17:53:02 10° 143° (SE) 2,443 5.3 -5.7°
Maximum altitude 17:58:17 54° 68° (ENE) 1,015 3.3 -6.5°
Drops below altitude 10° 18:03:35 10° 352° (N) 2,460 5.7 -7.3°
Sets 18:05:59 0° 348° (NNW) 3,398 6.5 -7.7°
